User: anonymous
Location: Huntington Beach
(33.6600°N, 117.9980°W)
Time: 22:32:32
(UTC-07:00)
Language:

SL-16 R/B - Orbit

View from above orbital plane
View from above orbital plane
View from above satellite
View from above satellite

Ground track
Ground track

The orbit data is extracted from the following two-line orbital elements,

1 28353U 04021B   14107.93189019  .00000285  00000-0  17485-3 0  7307
2 28353 071.0016 343.1167 0004546 176.4911 269.5260 14.14063872508707
Epoch (UTC): 17 April 2014 22:21:55
Eccentricity: 0.0004546
inclination: 71.0016°
perigee height: 842 km
apogee height: 849 km
right ascension of ascending node: 343.1167°
argument of perigee: 176.4911°
revolutions per day: 14.14063872
mean anomaly at epoch: 269.5260°
orbit number at epoch: 50870

The dashed part of the orbit path shows where the satellite is in the earth's shadow,  

DLR